When you browse on this site, cookies collect data to enhance your experience and personalize the content and advertising you see.
Visit our Privacy Policy to learn more. By continuing to use the site, you agree to this use of cookies and data.
  • In Portugal
  • List of Countries
  • For 7 days
  • Water Temperature
  • Satellite Maps
  • Weather Map
  • Weather Widgets
  • user-avatar
    Login

    Hourly Weather Blagoevgrad

    Today, 10 December, Monday

    Time Temperature Precipitation Wind Pressure Humidity
    00:00 +4°C° 0 mm 1 mps 713 mmHg 72%
    01:00 +4°C° 0 mm 1 mps 713 mmHg 72%
    02:00 +4°C° 0 mm 1 mps 713 mmHg 73%
    03:00 +4°C° 0 mm 1 mps 712 mmHg 73%
    04:00 +4°C° 0 mm 1 mps 712 mmHg 73%
    05:00 +5°C° 0 mm 1 mps 712 mmHg 73%
    06:00 +5°C° 0.6 mm 1 mps 712 mmHg 75%
    07:00 +5°C° 0.6 mm 1 mps 712 mmHg 76%
    08:00 +4°C° 0.6 mm 2 mps 712 mmHg 78%
    09:00 +4°C° 1 mm 2 mps 712 mmHg 80%
    10:00 +4°C° 1 mm 2 mps 713 mmHg 83%
    11:00 +4°C° 1 mm 2 mps 713 mmHg 86%
    12:00 +5°C° 0.4 mm 2 mps 713 mmHg 86%
    13:00 +4°C° 0.4 mm 3 mps 713 mmHg 85%
    14:00 +4°C° 0.4 mm 3 mps 713 mmHg 84%
    15:00 +4°C° 0.1 mm 3 mps 713 mmHg 85%
    16:00 +3°C° 0.1 mm 3 mps 713 mmHg 86%
    17:00 +3°C° 0.1 mm 3 mps 713 mmHg 87%
    18:00 +3°C° 0.1 mm 3 mps 714 mmHg 87%
    19:00 +2°C° 0.1 mm 3 mps 714 mmHg 88%
    20:00 +2°C° 0.1 mm 3 mps 715 mmHg 88%
    21:00 +1°C° 0 mm 3 mps 715 mmHg 88%
    22:00 +1°C° 0 mm 3 mps 715 mmHg 88%
    23:00 0°C° 0 mm 3 mps 715 mmHg 87%

    Tomorrow, 11 December, Tuesday

    Time Temperature Precipitation Wind Pressure Humidity
    00:00 -1°C° 0 mm 3 mps 716 mmHg 87%
    01:00 -1°C° 0 mm 2 mps 716 mmHg 87%
    02:00 -2°C° 0 mm 2 mps 716 mmHg 87%
    03:00 -2°C° 0 mm 2 mps 716 mmHg 87%
    04:00 -2°C° 0 mm 2 mps 716 mmHg 86%
    05:00 -3°C° 0 mm 2 mps 716 mmHg 86%
    06:00 -3°C° 0 mm 2 mps 716 mmHg 86%
    07:00 -3°C° 0 mm 2 mps 717 mmHg 85%
    08:00 -3°C° 0 mm 2 mps 717 mmHg 85%
    09:00 -2°C° 0 mm 2 mps 717 mmHg 79%
    10:00 -1°C° 0 mm 3 mps 718 mmHg 73%
    11:00 +1°C° 0 mm 3 mps 718 mmHg 67%
    12:00 +1°C° 0 mm 3 mps 718 mmHg 66%
    13:00 +1°C° 0 mm 3 mps 718 mmHg 64%
    14:00 +2°C° 0 mm 3 mps 718 mmHg 62%
    15:00 +1°C° 0 mm 2 mps 718 mmHg 67%
    16:00 -1°C° 0 mm 2 mps 718 mmHg 72%
    17:00 -2°C° 0 mm 2 mps 719 mmHg 76%
    18:00 -2°C° 0 mm 2 mps 719 mmHg 77%
    19:00 -1°C° 0 mm 1 mps 719 mmHg 78%
    20:00 -2°C° 0 mm 1 mps 720 mmHg 78%
    21:00 -2°C° 0 mm 1 mps 720 mmHg 77%
    22:00 -2°C° 0 mm 1 mps 720 mmHg 76%
    23:00 -2°C° 0 mm 1 mps 720 mmHg 75%

    Day after tomorrow, 12 December, Wednesday

    Time Temperature Precipitation Wind Pressure Humidity
    00:00 -2°C° 0 mm 1 mps 720 mmHg 75%
    01:00 -2°C° 0 mm 1 mps 720 mmHg 75%
    02:00 -2°C° 0 mm 1 mps 720 mmHg 75%
    03:00 -2°C° 0 mm 1 mps 720 mmHg 75%
    04:00 -2°C° 0 mm 1 mps 720 mmHg 75%
    05:00 -3°C° 0 mm 1 mps 720 mmHg 75%
    06:00 -3°C° 0 mm 1 mps 721 mmHg 75%
    07:00 -3°C° 0 mm 1 mps 721 mmHg 75%
    08:00 -3°C° 0 mm 1 mps 721 mmHg 75%
    09:00 -1°C° 0 mm 1 mps 722 mmHg 70%
    10:00 +1°C° 0 mm 1 mps 722 mmHg 65%
    11:00 +3°C° 0 mm 1 mps 722 mmHg 61%
    12:00 +2°C° 0 mm 2 mps 722 mmHg 59%
    13:00 +3°C° 0 mm 2 mps 722 mmHg 58%
    14:00 +3°C° 0 mm 2 mps 721 mmHg 56%
    15:00 +2°C° 0 mm 2 mps 721 mmHg 62%
    16:00 +1°C° 0 mm 1 mps 721 mmHg 67%
    17:00 0°C° 0 mm 1 mps 721 mmHg 73%
    18:00 -1°C° 0 mm 1 mps 721 mmHg 72%
    19:00 -1°C° 0 mm 1 mps 722 mmHg 72%
    20:00 -1°C° 0 mm 1 mps 722 mmHg 71%
    21:00 -1°C° 0 mm 1 mps 722 mmHg 71%
    22:00 -2°C° 0 mm 1 mps 722 mmHg 70%
    23:00 -2°C° 0 mm 1 mps 722 mmHg 69%

    13 December, Thursday

    Time Temperature Precipitation Wind Pressure Humidity
    00:00 -2°C° 0 mm 1 mps 722 mmHg 68%
    01:00 -2°C° 0 mm 1 mps 722 mmHg 67%
    02:00 -2°C° 0 mm 1 mps 722 mmHg 67%
    03:00 -2°C° 0 mm 1 mps 722 mmHg 65%
    04:00 -1°C° 0 mm 1 mps 722 mmHg 64%
    05:00 -1°C° 0 mm 1 mps 722 mmHg 63%
    06:00 -1°C° 0 mm 1 mps 722 mmHg 62%
    07:00 -1°C° 0 mm 1 mps 722 mmHg 61%
    08:00 -1°C° 0 mm 1 mps 722 mmHg 59%
    09:00 +1°C° 0 mm 1 mps 722 mmHg 55%
    10:00 +3°C° 0 mm 1 mps 722 mmHg 52%
    11:00 +5°C° 0 mm 1 mps 723 mmHg 48%
    12:00 +5°C° 0 mm 1 mps 722 mmHg 48%
    13:00 +6°C° 0 mm 1 mps 722 mmHg 49%
    14:00 +6°C° 0 mm 1 mps 721 mmHg 50%
    15:00 +5°C° 0 mm 1 mps 721 mmHg 55%
    16:00 +4°C° 0 mm 1 mps 721 mmHg 60%
    17:00 +3°C° 0 mm 1 mps 720 mmHg 65%
    18:00 +2°C° 0 mm 1 mps 720 mmHg 66%
    19:00 +2°C° 0 mm 1 mps 720 mmHg 68%
    20:00 +1°C° 0 mm 1 mps 720 mmHg 69%
    21:00 +1°C° 0 mm 1 mps 720 mmHg 70%
    22:00 +1°C° 0 mm 1 mps 720 mmHg 72%
    23:00 +1°C° 0 mm 1 mps 720 mmHg 73%

    14 December, Friday

    Time Temperature Precipitation Wind Pressure Humidity
    00:00 +2°C° 0.2 mm 1 mps 720 mmHg 77%
    01:00 +2°C° 0.2 mm 1 mps 719 mmHg 80%
    02:00 +2°C° 0.2 mm 1 mps 719 mmHg 84%
    03:00 +2°C° 0.1 mm 1 mps 719 mmHg 85%
    04:00 +2°C° 0.1 mm 1 mps 718 mmHg 86%
    05:00 +2°C° 0.1 mm 1 mps 718 mmHg 87%
    06:00 +3°C° 0.2 mm 1 mps 718 mmHg 87%
    07:00 +3°C° 0.2 mm 1 mps 718 mmHg 87%
    08:00 +3°C° 0.2 mm 1 mps 718 mmHg 87%
    09:00 +5°C° 0.2 mm 1 mps 718 mmHg 85%
    10:00 +6°C° 0.2 mm 1 mps 718 mmHg 83%
    11:00 +7°C° 0.2 mm 1 mps 718 mmHg 81%
    12:00 +6°C° 0.9 mm 1 mps 717 mmHg 83%
    13:00 +6°C° 0.9 mm 1 mps 716 mmHg 85%
    14:00 +6°C° 0.9 mm 1 mps 716 mmHg 88%
    15:00 +6°C° 1.2 mm 1 mps 715 mmHg 89%
    16:00 +5°C° 1.2 mm 1 mps 715 mmHg 90%
    17:00 +5°C° 1.2 mm 1 mps 715 mmHg 91%
    18:00 +5°C° 1.3 mm 1 mps 715 mmHg 92%
    19:00 +4°C° 1.3 mm 2 mps 715 mmHg 92%
    20:00 +3°C° 1.3 mm 2 mps 715 mmHg 92%
    21:00 +3°C° 0.6 mm 2 mps 715 mmHg 92%
    22:00 +3°C° 0.6 mm 2 mps 715 mmHg 92%
    23:00 +3°C° 0.6 mm 2 mps 715 mmHg 92%

    15 December, Saturday

    Time Temperature Precipitation Wind Pressure Humidity
    00:00 +1°C° 0.5 mm 3 mps 715 mmHg 92%
    01:00 +1°C° 0.5 mm 3 mps 715 mmHg 92%
    02:00 0°C° 0.5 mm 3 mps 715 mmHg 92%
    03:00 0°C° 0.1 mm 3 mps 716 mmHg 92%
    04:00 -1°C° 0.1 mm 3 mps 716 mmHg 91%
    05:00 -1°C° 0.1 mm 3 mps 716 mmHg 91%
    06:00 -2°C° 0 mm 2 mps 717 mmHg 91%
    07:00 -2°C° 0 mm 2 mps 717 mmHg 90%
    08:00 -2°C° 0 mm 2 mps 718 mmHg 90%
    09:00 -1°C° 0 mm 2 mps 718 mmHg 87%
    10:00 +1°C° 0 mm 2 mps 719 mmHg 85%
    11:00 +2°C° 0 mm 2 mps 719 mmHg 82%
    12:00 +2°C° 0 mm 2 mps 719 mmHg 81%
    13:00 +3°C° 0 mm 2 mps 719 mmHg 81%
    14:00 +3°C° 0 mm 2 mps 719 mmHg 80%
    15:00 +2°C° 0 mm 2 mps 719 mmHg 83%
    16:00 +1°C° 0 mm 2 mps 720 mmHg 85%
    17:00 -1°C° 0 mm 2 mps 720 mmHg 87%
    18:00 -2°C° 0 mm 2 mps 720 mmHg 87%
    19:00 -3°C° 0 mm 2 mps 721 mmHg 87%
    20:00 -4°C° 0 mm 2 mps 721 mmHg 87%
    21:00 -4°C° 0 mm 2 mps 721 mmHg 86%
    22:00 -5°C° 0 mm 2 mps 722 mmHg 85%
    23:00 -5°C° 0 mm 2 mps 722 mmHg 84%
    Show more